[[{"header":{"parameterUnit":"m.s-1","parameterCategory":1,"la1":30.2991,"la2":30.254,"lo1":-89.0895,"lo2":-89.0444,"dy":0.0017,"dx":0.0017,"nx":28,"ny":28,"refTime":"2024-03-12T21:00:00:Z","depth":0,"parameterNumber":2,"parameterNumberName":"U-component_of_WINDS"},"data":[0,0,0,0,0,0,0,0,0,0,0,0,0,0,0,0,0,0,0,0,0,0,0,0,0,0,0,0,0,0,0,0,0,0,0,0,0,0,0,0,0,0,0,0,0,0,0,0,0,0,0,0,0,0,0,0,0,0,-3.4424,-3.4426,0,-3.4604,-3.4606,-3.4608,-3.4654,-3.4653,-3.4652,-3.4651,-3.4836,-3.4842,-3.4848,0,0,0,0,0,0,0,0,0,0,0,0,0,-3.412,-3.4125,-3.4424,-3.4426,-3.4428,-3.4604,-3.4606,-3.4609,-3.4654,-3.4653,-3.4652,-3.465,-3.4834,-3.4841,-3.4848,0,0,0,0,0,0,0,0,0,0,0,0,0,-3.4271,-3.4127,-3.4423,-3.4472,-3.4478,-3.4603,-3.4607,-3.461,-3.4655,-3.4653,-3.4651,-3.465,-3.4832,-3.484,-3.4849,-3.4939,0,0,-3.4877,-3.4881,0,0,0,0,0,0,0,0,-3.4262,-3.4282,-3.4463,-3.4469,-3.4476,-3.4605,-3.4567,-3.472,-3.4655,-3.4588,-3.4651,-3.4649,-3.4761,-3.4775,-3.4813,-3.4948,-3.4956,-3.4878,-3.4883,-3.4887,-3.4889,0,0,0,0,0,0,0,-3.4252,-3.4275,-3.4495,-3.4465,-3.4473,-3.4485,-3.4505,-3.4596,-3.4681,-3.4593,-3.4597,-3.4618,-3.4764,-3.4804,-3.4818,-3.4958,-3.4877,-3.4885,-3.4891,-3.4894,-3.5176,-3.5178,0,0,0,0,0,0,-3.4233,-3.4266,-3.4489,-3.4501,-3.4363,-3.4492,-3.4514,-3.4565,-3.4681,-3.4697,-3.4619,-3.4619,-3.479,-3.4807,-3.4824,-3.4936,-3.4887,-3.4895,-3.49,-3.5174,-3.5177,-3.5179,0,0,0,0,0,0,-3.4226,-3.4252,-3.4482,-3.4384,-3.4414,-3.4499,-3.4556,-3.457,-3.461,-3.47,-3.4716,-3.4644,-3.4789,-3.4812,-3.491,-3.4943,-3.4899,-3.4907,-3.5172,-3.5175,-3.5178,-3.5161,0,0,0,0,0,0,-3.4217,-3.425,-3.4284,-3.4385,-3.4419,-3.4564,-3.4558,-3.4575,-3.4625,-3.4627,-3.4728,-3.4743,-3.4789,-3.4896,-3.4919,-3.4955,-3.4914,-3.5169,-3.5173,-3.5177,-3.5159,-3.5164,-3.5167,0,0,0,0,0,-3.4206,-3.4273,-3.4286,-3.4313,-3.4464,-3.4566,-3.4586,-3.4638,-3.4628,-3.4663,-3.4721,-3.474,-3.4937,-3.4906,-3.4932,-3.4971,-3.5167,-3.5172,-3.5176,-3.5157,-3.5163,-3.5167,0,0,0,0,0,0,-3.4174,-3.4287,-3.4302,-3.4403,-3.4475,-3.4574,-3.462,-3.4642,-3.4718,-3.4717,-3.4778,-3.4801,-3.4895,-3.4943,-3.4907,-3.5064,-3.5052,-3.5062,-3.5029,-3.5034,-3.5038,-3.5024,-3.4922,0,0,0,0,0,-3.4178,-3.4252,-3.4346,-3.4426,-3.4461,-3.4535,-3.4581,-3.4615,-3.4691,-3.4722,-3.4787,-3.4861,-3.494,-3.499,-3.5067,-3.5167,-3.519,-3.5207,-3.5211,-3.5214,-3.5221,-3.5277,-3.5286,-3.5194,-3.5194,-3.5194,0,0,-3.4189,-3.4259,-3.4302,-3.4421,-3.4481,-3.4555,-3.456,-3.4638,-3.4694,-3.4734,-3.483,-3.4881,-3.4968,-3.5067,-3.5114,-3.5111,-3.5252,-3.522,-3.5221,-3.5228,-3.5283,-3.5292,-3.5299,-3.5197,-3.5197,-3.5196,0,0,-3.4245,-3.4306,-3.4379,-3.4438,-3.4528,-3.4577,-3.4594,-3.4691,-3.4726,-3.4824,-3.4855,-3.4923,-3.5057,-3.5118,-3.5166,-3.5246,-3.5266,-3.527,-3.529,-3.5344,-3.5351,-3.5358,-3.5385,-3.5395,-3.5277,-3.5277,-3.5277,0,-3.4246,-3.4359,-3.4414,-3.4491,-3.4542,-3.4583,-3.4657,-3.4712,-3.4823,-3.4858,-3.4852,-3.5022,-3.5083,-3.5197,-3.5216,-3.5255,-3.5276,-3.5258,-3.5346,-3.5353,-3.536,-3.5387,-3.5397,-3.5277,-3.5277,-3.5277,-3.5277,0,-3.4355,-3.4433,-3.4482,-3.4587,-3.4645,-3.472,-3.4787,-3.4838,-3.4868,-3.4917,-3.5016,-3.5092,-3.5185,-3.5215,-3.5244,-3.5333,-3.5328,-3.5333,-3.5322,-3.5368,-3.5394,-3.5405,-3.5277,-3.5277,-3.5277,-3.5277,0,0,-3.4395,-3.453,-3.4547,-3.4595,-3.4698,-3.4759,-3.4837,-3.4928,-3.4971,-3.5047,-3.5113,-3.5226,-3.5232,-3.5286,-3.5324,-3.5371,-3.5429,-3.5371,-3.5374,-3.5378,-3.5531,-3.5525,-3.5536,-3.5443,-3.5446,-3.5448,-3.5523,0,-3.4462,-3.4601,-3.4653,-3.4768,-3.484,-3.488,-3.4948,-3.5018,-3.5067,-3.5136,-3.519,-3.5268,-3.5271,-3.5304,-3.5353,-3.5411,-3.546,-3.5407,-3.5505,-3.5508,-3.548,-3.555,-3.5544,-3.5611,-3.5534,-3.5536,-3.5537,0,-3.456,-3.4636,-3.4757,-3.4851,-3.4883,-3.4943,-3.5031,-3.5096,-3.5178,-3.521,-3.5271,-3.5305,-3.5388,-3.5373,-3.5488,-3.5451,-3.5495,-3.553,-3.5534,-3.5543,-3.5524,-3.556,-3.5634,-3.5644,-3.5554,-3.5553,-3.5552,0,-3.4575,-3.4708,-3.4797,-3.4838,-3.495,-3.4991,-3.5039,-3.5119,-3.517,-3.5248,-3.5282,-3.5367,-3.5414,-3.548,-3.5537,-3.552,-3.5646,-3.5636,-3.5675,-3.5673,-3.5698,-3.5695,-3.5779,-3.5729,-3.5729,-3.5728,-3.5728,0,-3.4644,-3.4716,-3.4805,-3.486,-3.4942,-3.5002,-3.5082,-3.5134,-3.5204,-3.527,-3.5311,-3.5372,-3.5443,-3.5514,-3.5559,-3.5647,-3.5668,-3.5696,-3.5707,-3.5692,-3.5688,-3.572,-3.5716,-3.5731,-3.5731,-3.573,-3.573,0,-3.4674,-3.4736,-3.4836,-3.4935,-3.4961,-3.5017,-3.5101,-3.5157,-3.5207,-3.529,-3.5313,-3.5393,-3.5478,-3.5541,-3.5652,-3.5682,-3.5776,-3.5788,-3.5748,-3.5753,-3.5788,-3.5783,-3.5893,-3.591,-3.585,-3.585,-3.5851,0,-3.4713,-3.477,-3.4874,-3.492,-3.4969,-3.5044,-3.5097,-3.5158,-3.5211,-3.5308,-3.5352,-3.544,-3.5513,-3.5647,-3.5715,-3.58,-3.5813,-3.5846,-3.5826,-3.5809,-3.5812,-3.5808,-3.5813,-3.5848,-3.5848,-3.5849,-3.5849,0,-3.4776,-3.4804,-3.4878,-3.4964,-3.5025,-3.5095,-3.5166,-3.5203,-3.5277,-3.5335,-3.5422,-3.5479,-3.5592,-3.5678,-3.577,-3.5821,-3.5847,-3.5855,-3.5868,-3.5852,-3.5826,-3.584,-3.5753,-3.5852,-3.5851,-3.5851,-3.5851,-3.5851,-3.4812,-3.4863,-3.4944,-3.5026,-3.5086,-3.5151,-3.5207,-3.5265,-3.5339,-3.5435,-3.5467,-3.5557,-3.5638,-3.5763,-3.5815,-3.5887,-3.5886,-3.5906,-3.5911,-3.5914,-3.5912,-3.5816,-3.5904,-3.5904,-3.5904,-3.5904,-3.5904,0,-3.4876,-3.493,-3.5004,-3.5102,-3.5166,-3.5185,-3.5265,-3.5317,-3.5396,-3.5468,-3.554,-3.564,-3.5725,-3.5799,-3.5887,-3.593,-3.5945,-3.5951,-3.5948,-3.5959,-3.5908,-3.5887,-3.5938,-3.5938,-3.5938,-3.5938,-3.5938,-3.5938,-3.4916,-3.5005,-3.5043,-3.5161,-3.5216,-3.5304,-3.5347,-3.5408,-3.5466,-3.5576,-3.5646,-3.5694,-3.5768,-3.5862,-3.594,-3.596,-3.599,-3.5994,-3.6016,-3.5967,-3.5963,-3.5958,-3.5939,-3.6,-3.6,-3.6061,-3.6062,-3.6062]},{"header":{"parameterUnit":"m.s-1","parameterCategory":1,"la1":30.2991,"la2":30.254,"lo1":-89.0895,"lo2":-89.0444,"dy":0.0017,"dx":0.0017,"nx":28,"ny":28,"refTime":"2024-03-12T21:00:00:Z","depth":0,"parameterNumber":3,"parameterNumberName":"V-component_of_WINDS"},"data":[0,0,0,0,0,0,0,0,0,0,0,0,0,0,0,0,0,0,0,0,0,0,0,0,0,0,0,0,0,0,0,0,0,0,0,0,0,0,0,0,0,0,0,0,0,0,0,0,0,0,0,0,0,0,0,0,0,0,1.6939,1.6939,0,1.6963,1.6964,1.6964,1.6962,1.6962,1.6962,1.6961,1.6988,1.6989,1.699,0,0,0,0,0,0,0,0,0,0,0,0,0,1.6894,1.6895,1.6939,1.6939,1.694,1.6963,1.6964,1.6964,1.6962,1.6962,1.6962,1.6961,1.6988,1.6989,1.699,0,0,0,0,0,0,0,0,0,0,0,0,0,1.6916,1.6896,1.6939,1.6942,1.6942,1.6963,1.6964,1.6964,1.6962,1.6962,1.6961,1.6961,1.6987,1.6989,1.699,1.7011,0,0,1.6995,1.6996,0,0,0,0,0,0,0,0,1.6915,1.6917,1.6941,1.6942,1.6942,1.6959,1.6958,1.698,1.6963,1.6955,1.6961,1.6961,1.6979,1.6981,1.6987,1.7012,1.7013,1.6995,1.6996,1.6997,1.6997,0,0,0,0,0,0,0,1.6913,1.6916,1.6949,1.6941,1.6942,1.6943,1.6945,1.6962,1.697,1.6955,1.6955,1.6958,1.6979,1.6985,1.6987,1.7013,1.6995,1.6996,1.6997,1.6998,1.7059,1.7059,0,0,0,0,0,0,1.6911,1.6915,1.6948,1.6949,1.6927,1.6944,1.6947,1.6954,1.6969,1.6971,1.6959,1.6958,1.6983,1.6986,1.6988,1.7015,1.6997,1.6998,1.6999,1.7058,1.7059,1.7059,0,0,0,0,0,0,1.691,1.6914,1.6947,1.6932,1.6937,1.6945,1.6954,1.6955,1.6961,1.6972,1.6973,1.6963,1.6983,1.6986,1.7005,1.7015,1.6999,1.7,1.7057,1.7058,1.7059,1.7066,0,0,0,0,0,0,1.6908,1.6913,1.692,1.6932,1.6937,1.6963,1.6954,1.6956,1.6964,1.6963,1.6977,1.6978,1.6982,1.7003,1.7007,1.7017,1.7002,1.7056,1.7058,1.7059,1.7065,1.7067,1.7069,0,0,0,0,0,1.6907,1.6921,1.6921,1.6925,1.6946,1.6963,1.6966,1.697,1.6964,1.6972,1.6979,1.6978,1.7014,1.7005,1.7009,1.702,1.7056,1.7057,1.7059,1.7064,1.7067,1.7069,0,0,0,0,0,0,1.691,1.6923,1.6922,1.6941,1.6951,1.6963,1.6973,1.6972,1.6985,1.6984,1.6988,1.6992,1.7011,1.7018,1.7008,1.7042,1.7034,1.7037,1.7037,1.704,1.7042,1.704,1.7003,0,0,0,0,0,1.6913,1.6925,1.6936,1.6951,1.6956,1.6964,1.6971,1.6973,1.6984,1.6989,1.6997,1.7008,1.7022,1.7031,1.7044,1.7066,1.707,1.7076,1.7078,1.708,1.7082,1.7096,1.7099,1.7064,1.7064,1.7064,0,0,1.692,1.6928,1.6935,1.6952,1.696,1.6974,1.6967,1.6981,1.6992,1.6991,1.701,1.7016,1.703,1.7051,1.706,1.7057,1.7093,1.7082,1.7083,1.7084,1.7098,1.7101,1.7104,1.7065,1.7065,1.7065,0,0,1.6938,1.6945,1.6959,1.6968,1.698,1.6985,1.6988,1.7001,1.7005,1.7024,1.7024,1.7037,1.706,1.707,1.7078,1.7102,1.7102,1.7106,1.7117,1.7131,1.7133,1.7136,1.7146,1.7149,1.7108,1.7108,1.7108,0,1.6944,1.6963,1.6967,1.6981,1.699,1.6989,1.7005,1.7013,1.7029,1.7036,1.7031,1.7062,1.707,1.7094,1.71,1.7106,1.7112,1.7105,1.7132,1.7135,1.7137,1.7147,1.715,1.7109,1.7109,1.7109,1.7109,0,1.6971,1.6985,1.6995,1.7011,1.702,1.7035,1.7042,1.7051,1.7053,1.7059,1.7079,1.709,1.7106,1.7112,1.7114,1.7137,1.7134,1.7131,1.7123,1.7141,1.715,1.7154,1.711,1.7109,1.7109,1.7109,0,0,1.6992,1.701,1.7014,1.7022,1.7036,1.7047,1.7063,1.7078,1.7087,1.7098,1.7113,1.7133,1.7131,1.714,1.7143,1.7155,1.7175,1.715,1.7151,1.7155,1.7203,1.7206,1.721,1.7175,1.7175,1.7176,1.7202,0,1.7013,1.7039,1.7044,1.7068,1.7081,1.7082,1.7096,1.7107,1.7113,1.7127,1.7134,1.7149,1.7144,1.715,1.7161,1.717,1.7185,1.7168,1.7189,1.719,1.7187,1.7214,1.7217,1.7242,1.7206,1.7206,1.7207,0,1.704,1.7052,1.7078,1.7092,1.7097,1.711,1.7125,1.7137,1.715,1.7154,1.7165,1.7168,1.7185,1.7177,1.7202,1.7191,1.72,1.7206,1.7207,1.721,1.72,1.7219,1.7249,1.7253,1.7212,1.7212,1.7211,0,1.7054,1.7077,1.7096,1.7102,1.7118,1.7127,1.7134,1.7147,1.7157,1.717,1.7177,1.7193,1.7202,1.7215,1.7222,1.7215,1.7248,1.7239,1.7253,1.7253,1.726,1.7259,1.7293,1.7264,1.7264,1.7264,1.7264,0,1.7077,1.7093,1.7102,1.7114,1.7132,1.7138,1.7156,1.7163,1.7175,1.7189,1.7191,1.7204,1.7212,1.7227,1.7233,1.7254,1.7258,1.7263,1.7264,1.7263,1.7262,1.7269,1.7268,1.7265,1.7265,1.7265,1.7265,0,1.7096,1.7102,1.7123,1.7137,1.7141,1.7154,1.7167,1.7179,1.7185,1.7203,1.7208,1.7219,1.7236,1.7245,1.7267,1.7271,1.7295,1.7295,1.7291,1.7292,1.7305,1.7304,1.7345,1.7352,1.7318,1.7318,1.7318,0,1.711,1.7123,1.7138,1.7147,1.7155,1.717,1.718,1.7186,1.7196,1.7213,1.7224,1.7241,1.7256,1.7285,1.7296,1.7313,1.7314,1.7327,1.7317,1.7316,1.7316,1.7315,1.7318,1.7329,1.733,1.733,1.733,0,1.7136,1.7139,1.7153,1.7168,1.718,1.7193,1.7205,1.7213,1.7221,1.7234,1.7252,1.7263,1.7286,1.7304,1.7323,1.7332,1.7333,1.7333,1.7338,1.7337,1.7335,1.7338,1.7297,1.7333,1.7332,1.7332,1.7332,1.7332,1.7154,1.7166,1.7179,1.7194,1.7204,1.7216,1.7229,1.7237,1.7252,1.7271,1.7274,1.7294,1.7309,1.7333,1.7343,1.736,1.7357,1.7363,1.7364,1.7366,1.7367,1.7331,1.7363,1.7363,1.7363,1.7363,1.7363,0,1.7181,1.719,1.7204,1.7221,1.7234,1.7234,1.7248,1.7259,1.7276,1.7289,1.7304,1.7326,1.7344,1.7357,1.7375,1.7387,1.7388,1.7391,1.7391,1.7394,1.7368,1.7363,1.739,1.739,1.739,1.739,1.739,1.739,1.7197,1.7217,1.7221,1.7247,1.7256,1.7275,1.7283,1.7295,1.7306,1.733,1.7345,1.7352,1.7366,1.7386,1.7403,1.7407,1.7414,1.7418,1.7422,1.7398,1.7395,1.7392,1.7388,1.7419,1.7419,1.7446,1.7446,1.7446]}]]